Weather History for San Diego, CA

Change the Weather History Date:

Saturday, July 6, 2013

  Actual Average Record
Temperature  
Mean Temperature 70 °F 69 °F  
Max Temperature 73 °F 74 °F 83 °F (1981)
Min Temperature 67 °F 64 °F 57 °F (1948)
Degree Days  
Heating Degree Days 0 0  
Month to date heating degree days 0 0  
Since 1 June heating degree days 15 18  
Since 1 July heating degree days 0 0  
Cooling Degree Days 5 4  
Month to date cooling degree days 37 24  
Year to date cooling degree days 161 133  
Since 1 June cooling degree days 107 84  
Growing Degree Days 20 (Base 50)    
Moisture  
Dew Point 60 °F    
Average Humidity 75    
Maximum Humidity 81    
Minimum Humidity 68    
Precipitation  
Precipitation 0.00 in 0.00 in 0.03 in (1968)
Month to date precipitation 0.00 0.00  
Year to date precipitation 3.33 7.03  
Since 1 July precipitation 0.00 0.00  
Snow  
Snow 0.00 in - - ()
Month to date snowfall 0.0  
Year to date snowfall 0.0  
Since 1 July snowfall 0.0  
Snow Depth 0.00 in    
Sea Level Pressure  
Sea Level Pressure 29.83 in    
Wind  
Wind Speed 5 mph (WSW)    
Max Wind Speed 12 mph    
Max Gust Speed 16 mph    
Visibility 10 miles    
Events      
T = Trace of Precipitation, MM = Missing Value Source: NWS Daily Summary

Daily Weather History Graph

Daily Weather History Graph

Search for Another Location

Airport:

Trip Planner

Search our weather history database for the weather conditions in past years. The results will help you decide how hot, cold, wet, or windy it might be!

Date:

Astronomy

Jul. 06, 2013 Rise Set
Actual Time 5:46 AM PDT 8:00 PM PDT
Civil Twilight 5:18 AM PDT 8:28 PM PDT
Nautical Twilight 4:43 AM PDT 9:02 PM PDT
Astronomical Twilight 4:06 AM PDT 9:40 PM PDT
Moon 4:33 AM PDT (7/6) 6:48 PM PDT (7/6)
Length of Visible Light 15h 09m
Length of Day
14h 13m
Waning Crescent, 2% of the Moon is Illuminated
Jul 6
Waning Crescent
Jul 8
New
Jul 15
First Quarter
Jul 22
Full
Jul 29
Last Quarter

Hourly Weather History & Observations

Time (PDT) Temp. Dew Point Humidity Pressure Visibility Wind Dir Wind Speed Gust Speed Precip Events Conditions
12:51 AM 68.0 °F 60.1 °F 76% 29.84 in 10.0 mi Calm Calm - N/A   Overcast
1:51 AM 68.0 °F 60.1 °F 76% 29.82 in 10.0 mi Calm Calm - N/A   Overcast
2:51 AM 66.9 °F 60.1 °F 79% 29.81 in 10.0 mi WNW 3.5 mph - N/A   Overcast
3:51 AM 68.0 °F 60.1 °F 76% 29.81 in 10.0 mi Calm Calm - N/A   Overcast
4:51 AM 68.0 °F 60.1 °F 76% 29.80 in 10.0 mi NW 3.5 mph - N/A   Overcast
5:51 AM 68.0 °F 60.1 °F 76% 29.81 in 10.0 mi West 3.5 mph - N/A   Mostly Cloudy
6:34 AM 68.0 °F 60.8 °F 78% 29.82 in 10.0 mi Calm Calm - N/A   Overcast
6:51 AM 68.0 °F 60.1 °F 76% 29.83 in 10.0 mi SW 3.5 mph - N/A   Overcast
7:51 AM 68.0 °F 60.1 °F 76% 29.84 in 10.0 mi WSW 3.5 mph - N/A   Overcast
8:51 AM 69.1 °F 60.1 °F 73% 29.85 in 10.0 mi WSW 4.6 mph - N/A   Overcast
9:51 AM 69.1 °F 61.0 °F 75% 29.85 in 10.0 mi WSW 8.1 mph - N/A   Overcast
10:51 AM 70.0 °F 61.0 °F 73% 29.85 in 10.0 mi West 6.9 mph - N/A   Overcast
11:51 AM 70.0 °F 61.0 °F 73% 29.85 in 10.0 mi SSW 9.2 mph - N/A   Overcast
12:04 PM 71.6 °F 60.8 °F 69% 29.84 in 10.0 mi WSW 9.2 mph - N/A   Overcast
12:51 PM 72.0 °F 61.0 °F 68% 29.84 in 10.0 mi West 6.9 mph - N/A   Mostly Cloudy
1:51 PM 72.0 °F 61.0 °F 68% 29.83 in 10.0 mi WSW 9.2 mph - N/A   Mostly Cloudy
2:51 PM 71.1 °F 61.0 °F 70% 29.82 in 10.0 mi SW 11.5 mph - N/A   Mostly Cloudy
3:51 PM 70.0 °F 60.1 °F 71% 29.81 in 10.0 mi SW 8.1 mph - N/A   Overcast
4:51 PM 70.0 °F 60.1 °F 71% 29.80 in 10.0 mi SSW 9.2 mph - N/A   Mostly Cloudy
5:51 PM 69.1 °F 60.1 °F 73% 29.80 in 10.0 mi SW 8.1 mph - N/A   Overcast
6:23 PM 69.8 °F 60.8 °F 73% 29.80 in 10.0 mi WSW 8.1 mph - N/A   Overcast
6:51 PM 69.1 °F 60.1 °F 73% 29.81 in 10.0 mi SW 8.1 mph - N/A   Overcast
7:51 PM 68.0 °F 60.1 °F 76% 29.81 in 10.0 mi SW 3.5 mph - N/A   Overcast
8:51 PM 68.0 °F 59.0 °F 73% 29.82 in 10.0 mi SSW 4.6 mph - N/A   Overcast
9:42 PM 66.2 °F 59.0 °F 78% 29.83 in 10.0 mi SW 5.8 mph - N/A   Overcast
9:51 PM 66.2 °F 59.0 °F 78% 29.84 in 10.0 mi WSW 4.6 mph - N/A   Overcast
10:39 PM 66.2 °F 59.0 °F 78% 29.84 in 10.0 mi SW 5.8 mph - N/A   Overcast
10:51 PM 66.9 °F 59.0 °F 76% 29.84 in 10.0 mi SSW 5.8 mph - N/A   Overcast
11:51 PM 68.0 °F 59.0 °F 73% 29.83 in 10.0 mi WSW 3.5 mph - N/A   Overcast